Orangeburg, SC

12:10 AM EDT on March 26, 2017 (GMT -0400)
Orangeburg Municipal

Weather History for KOGB - September, 2013

Change the Weather History Date:

Tuesday, September 24, 2013

  Actual Average Record
Temperature  
Mean Temperature 70 °F 73 °F  
Max Temperature 81 °F 83 °F 98 °F (1980)
Min Temperature 59 °F 62 °F 44 °F (1982)
Degree Days  
Heating Degree Days 0 0  
Month to date heating degree days 0 0  
Since 1 July heating degree days 0 0  
Cooling Degree Days 5 8  
Month to date cooling degree days 291 259  
Year to date cooling degree days 1883 1952  
Growing Degree Days 20 (Base 50)    
Moisture  
Dew Point 57 °F    
Average Humidity 68    
Maximum Humidity 93    
Minimum Humidity 39    
Precipitation  
Precipitation 0.00 in 0.12 in 2.23 in (1997)
Month to date precipitation 0.88 2.99  
Year to date precipitation 48.19 36.30  
Sea Level Pressure  
Sea Level Pressure 30.01 in    
Wind  
Wind Speed 5 mph (East)    
Max Wind Speed 14 mph    
Max Gust Speed 20 mph    
Visibility 10 miles    
Events      
T = Trace of Precipitation, MM = Missing Value Source: NWS Daily Summary

Daily Weather History Graph

Daily Weather History Graph

Search for Another Location

Airport or City:

Trip Planner

Search our weather history database for the weather conditions in past years. The results will help you decide how hot, cold, wet, or windy it might be!

Date:

Astronomy

Sep. 24, 2013 Rise Set
Actual Time 7:13 AM EDT 7:17 PM EDT
Civil Twilight 6:48 AM EDT 7:41 PM EDT
Nautical Twilight 6:19 AM EDT 8:10 PM EDT
Astronomical Twilight 5:50 AM EDT 8:39 PM EDT
Moon 10:48 PM EDT (9/24) 12:11 PM EDT (9/24)
Length of Visible Light 12h 53m
Length of Day
12h 03m
Waning Gibbous, 73% of the Moon is Illuminated
Sep 24
Waning Gibbous
Sep 26
Last Quarter
Oct 4
New
Oct 11
First Quarter
Oct 18
Full

Hourly Weather History & Observations

Time (EDT) Temp. Heat Index Dew Point Humidity Pressure Visibility Wind Dir Wind Speed Gust Speed Precip Events Conditions
12:53 AM 61.0 °F - 57.9 °F 90% 30.05 in 10.0 mi Calm Calm - N/A   Clear
1:53 AM 61.0 °F - 57.9 °F 90% 30.05 in 10.0 mi Calm Calm - N/A   Clear
2:53 AM 60.1 °F - 57.0 °F 90% 30.04 in 9.0 mi Calm Calm - N/A   Clear
3:53 AM 59.0 °F - 57.0 °F 93% 30.03 in 8.0 mi Calm Calm - N/A   Clear
4:53 AM 60.1 °F - 57.0 °F 90% 30.03 in 8.0 mi NE 4.6 mph - N/A   Clear
5:53 AM 60.1 °F - 57.0 °F 90% 30.05 in 9.0 mi ENE 3.5 mph - N/A   Clear
6:53 AM 59.0 °F - 55.9 °F 90% 30.05 in 9.0 mi NE 4.6 mph - N/A   Clear
7:53 AM 60.1 °F - 55.9 °F 86% 30.06 in 8.0 mi NE 3.5 mph - N/A   Clear
8:53 AM 64.0 °F - 57.9 °F 80% 30.07 in 10.0 mi ENE 5.8 mph - N/A   Scattered Clouds
9:53 AM 69.1 °F - 59.0 °F 70% 30.07 in 10.0 mi East 4.6 mph - N/A   Clear
10:53 AM 73.9 °F - 55.9 °F 53% 30.06 in 10.0 mi East 9.2 mph 16.1 mph N/A   Mostly Cloudy
11:53 AM 75.0 °F - 54.0 °F 48% 30.04 in 10.0 mi East 9.2 mph 19.6 mph N/A   Mostly Cloudy
12:53 PM 77.0 °F - 54.0 °F 45% 30.02 in 10.0 mi ENE 11.5 mph - N/A   Overcast
1:53 PM 77.0 °F - 53.1 °F 43% 30.01 in 10.0 mi SE 11.5 mph - N/A   Mostly Cloudy
2:53 PM 79.0 °F - 55.0 °F 44% 29.99 in 10.0 mi ESE 5.8 mph - N/A   Scattered Clouds
3:53 PM 80.1 °F 80.0 °F 54.0 °F 40% 29.96 in 10.0 mi East 8.1 mph - N/A   Clear
4:53 PM 80.1 °F 80.1 °F 55.0 °F 42% 29.95 in 10.0 mi East 8.1 mph - N/A   Clear
5:53 PM 78.1 °F - 55.9 °F 46% 29.95 in 10.0 mi ENE 4.6 mph - N/A   Scattered Clouds
6:53 PM 75.0 °F - 57.9 °F 55% 29.94 in 10.0 mi ENE 3.5 mph - N/A   Overcast
7:53 PM 73.0 °F - 55.9 °F 55% 29.94 in 10.0 mi Calm Calm - N/A   Overcast
8:53 PM 71.1 °F - 57.0 °F 61% 29.94 in 10.0 mi Calm Calm - N/A   Scattered Clouds
9:53 PM 70.0 °F - 57.9 °F 65% 29.95 in 10.0 mi SE 5.8 mph - N/A   Clear
10:53 PM 68.0 °F - 60.1 °F 76% 29.94 in 10.0 mi ESE 3.5 mph - N/A   Clear
11:53 PM 66.9 °F - 60.1 °F 79% 29.93 in 10.0 mi Calm Calm - N/A   Clear